Preview of NWS' New Version of Forecast
This preview is not operational and should not be used for support decisions.

Terminal Aerodrome Forecast (TAF)

Issued by National Weather Service (NWS)

                            
000
FTUS42 KKEY 161740
TAFEYW
TAF
KEYW 161740Z 1618/1718 01010KT P6SM SKC
     FM170600 03010G17KT P6SM FEW025=